Showing default

LEMUR 2 LEIA-PHILIP, 63246

Orbit data source: Space-Track

LEMUR 2 LEIA-PHILIP, 63246 is a payload satellite owned by Spire (US) in SSO that was launched on Sat, 15 Mar 2025 UTC via an FALCON 9 launch vehicle from the Air Force Western Test Range (AFWTR). Payload-class satellites include a variety of spacecraft equipped with specific instruments for various scientific and technological missions. These include communications satellites like Starlink; space stations such as the ISS; scientific satellites like the Hubble; Earth observation satellites from companies like Planet Labs, Umbra, and HawkEye 360; GPS; miniature CubeSats for education and research; and military/defense satellites.

Loading next visibility...
Identifier
63246, 2025-052AN
Orbit
SSO
Country
Flag of USUS
Related business
Manufacturer
Spire/Glasgow
Mission
Operational Commercial Com/MetRO
Bus & Motor
CUBESAT 6U, Unknown motor
Mass
10 kg wet, 10 kg dry
Launch date (UTC)
2025-03-15 (1 year ago)
Launch vehicle
FALCON 9
Launch site
Air Force Western Test Range (AFWTR)
Object type
Payload
Rocket body
Debris
Shape & HBR
Box, 0.2 m
Radar Cross Section
0.080 m², Small (<0.1 m²)

Expand to show TLE details & history
Last TLE update: 18 hours ago

TLE from 18 hours ago
0 LEMUR 2 LEIA-PHILIP
1 63246U 25052AN  26126.43424797  .00001592  00000-0  14269-3 0  9994
2 63246  97.6871  19.0820 0004314  29.9703 330.1766 14.97193750 62429
Epoch: 2026-05-06T10:25Z
TLE epoch observation values (Epoch: 2026-05-06T10:25:19.024Z)
Latitude
0.00005°
Longitude
-1.54207°
Altitude
576.02 km
Speed
7.574 km/s
True Right ascension
01h 16m 19s
True Declination
0° 00' 00"
Sunlit
Object was in daylight at epoch
Visualization orbit readout
Latitude
Unknown
Longitude
Unknown
Altitude
Unknown
Speed
Unknown
Apparent Right ascension
Unknown
Apparent Declination
Unknown
Sunlit
N/A
Visualization observer readout
Local Sidereal Time
12:20:09
Azimuth
Unknown
Elevation
Unknown
Doppler factor
Unknown
Orbital elements
Apogee altitude
575.579 km
Perigee altitude
569.582 km
Semi-major axis
6,950.717 km
Eccentricity
0.00043
Inclination
97.6871°
RAAN
19.082°
Arg. of periapsis
29.9703°
True anomaly
330.152°
Mean anomaly
330.1766°
Eccentric anomaly
330.1643°
Mean motion
3.7454 °/min
Orbital period
96.12 mins
BSTAR
0.00014269
Loading maneuver chart data...
Computing Atmospheric mass density...
Loading historical data...
Loading historical data...
Loading historical data...
Loading historical data...
Loading historical data...
Loading historical data...
Loading historical data...

Documentation

Showing up to 5 results
|